^^
New Milford Station Historical Data
 
Daily Summary for July 01, 2022 Units:  English    Metric   Both
Daily Weekly Monthly Yearly
  Current: High: Low: Average:
Temperature: 92.2 °F 92.2 °F 61.2 °F 72 °F
Dew Point: 63.6 °F 72 °F 59.8 °F 64.7 °F
Humidity: 39% 97% 35% 81%
Wind Speed: 1mph 3mph 0mph 0.4mph
Wind Gust: 5mph 11mph - -
WindSE - - South
Pressure: 30.14 in 30.32 in 30.14 in -
Precipitation: 0.00 in      
 
 
Tabular Data for July 01, 2022
Time Temperature Dew Point Pressure Wind Wind Speed Wind Gust Humidity Rainfall Rate (Hourly) solar
00:00 66.4 °F 62.7 °F 30.32 in Calm     88% 0.00 in W/m2
00:05 66.3 °F 62.6 °F 30.32 in Calm     88% 0.00 in W/m2
00:10 66.2 °F 62.5 °F 30.32 in Calm     88% 0.00 in W/m2
00:15 66.2 °F 62.5 °F 30.31 in Calm     88% 0.00 in W/m2
00:20 66.1 °F 62.4 °F 30.31 in Calm     88% 0.00 in W/m2
00:25 65.9 °F 62.3 °F 30.31 in Calm     88% 0.00 in W/m2
00:30 65.9 °F 62.2 °F 30.31 in Calm     88% 0.00 in W/m2
00:35 65.8 °F 62.4 °F 30.31 in Calm     89% 0.00 in W/m2
00:40 65.7 °F 62.3 °F 30.31 in Calm     89% 0.00 in W/m2
00:45 65.5 °F 62.2 °F 30.31 in Calm     89% 0.00 in W/m2
00:50 65.5 °F 62.5 °F 30.31 in Calm     90% 0.00 in W/m2
00:55 65.4 °F 62.4 °F 30.31 in Calm     90% 0.00 in W/m2
01:00 65.3 °F 62.3 °F 30.31 in Calm     90% 0.00 in W/m2
01:05 65.2 °F 62.2 °F 30.31 in Calm     90% 0.00 in W/m2
01:10 65 °F 62 °F 30.31 in Calm     90% 0.00 in W/m2
01:15 65 °F 62.3 °F 30.30 in Calm     91% 0.00 in W/m2
01:20 64.9 °F 62.2 °F 30.31 in Calm     91% 0.00 in W/m2
01:25 64.9 °F 62.2 °F 30.31 in Calm     91% 0.00 in W/m2
01:30 64.9 °F 62.2 °F 30.31 in Calm     91% 0.00 in W/m2
01:35 64.8 °F 62.1 °F 30.31 in Calm     91% 0.00 in W/m2
01:40 64.8 °F 62.1 °F 30.30 in Calm     91% 0.00 in W/m2
01:45 64.6 °F 62.2 °F 30.30 in Calm     92% 0.00 in W/m2
01:50 64.6 °F 62.2 °F 30.30 in Calm     92% 0.00 in W/m2
01:55 64.5 °F 62.1 °F 30.30 in Calm     92% 0.00 in W/m2
02:00 64.5 °F 62.4 °F 30.30 in Calm     93% 0.00 in W/m2
02:05 64.4 °F 62.3 °F 30.30 in Calm     93% 0.00 in W/m2
02:10 64.3 °F 62.2 °F 30.30 in Calm     93% 0.00 in W/m2
02:15 64.2 °F 62.1 °F 30.30 in Calm     93% 0.00 in W/m2
02:20 64.2 °F 62.1 °F 30.30 in Calm     93% 0.00 in W/m2
02:25 64.1 °F 62 °F 30.30 in Calm     93% 0.00 in W/m2
02:30 64 °F 61.9 °F 30.30 in Calm     93% 0.00 in W/m2
02:35 63.9 °F 61.8 °F 30.30 in Calm     93% 0.00 in W/m2
02:40 63.8 °F 61.7 °F 30.30 in Calm     93% 0.00 in W/m2
02:45 63.8 °F 61.7 °F 30.30 in Calm     93% 0.00 in W/m2
02:50 63.8 °F 62 °F 30.30 in Calm     94% 0.00 in W/m2
02:55 63.7 °F 61.9 °F 30.29 in Calm     94% 0.00 in W/m2
03:00 63.6 °F 61.8 °F 30.29 in Calm     94% 0.00 in W/m2
03:05 63.6 °F 61.8 °F 30.29 in Calm     94% 0.00 in W/m2
03:10 63.5 °F 61.7 °F 30.30 in Calm     94% 0.00 in W/m2
03:15 63.3 °F 61.6 °F 30.29 in Calm     94% 0.00 in W/m2
03:20 63.3 °F 61.6 °F 30.29 in Calm     94% 0.00 in W/m2
03:25 63.2 °F 61.7 °F 30.29 in Calm     95% 0.00 in W/m2
03:30 63.1 °F 61.6 °F 30.29 in Calm     95% 0.00 in W/m2
03:35 62.9 °F 61.4 °F 30.29 in Calm     95% 0.00 in W/m2
03:40 63 °F 61.5 °F 30.29 in Calm     95% 0.00 in W/m2
03:45 62.9 °F 61.7 °F 30.29 in Calm     96% 0.00 in W/m2
03:50 62.8 °F 61.6 °F 30.29 in Calm     96% 0.00 in W/m2
03:55 62.7 °F 61.6 °F 30.28 in Calm     96% 0.00 in W/m2
04:00 62.7 °F 61.6 °F 30.29 in Calm     96% 0.00 in W/m2
04:05 62.6 °F 61.4 °F 30.28 in Calm     96% 0.00 in W/m2
04:10 62.5 °F 61.4 °F 30.29 in Calm     96% 0.00 in W/m2
04:15 62.4 °F 61.3 °F 30.28 in Calm     96% 0.00 in W/m2
04:20 62.4 °F 61.2 °F 30.29 in Calm     96% 0.00 in W/m2
04:25 62.3 °F 61.2 °F 30.28 in Calm     96% 0.00 in W/m2
04:30 62.2 °F 61 °F 30.28 in Calm     96% 0.00 in W/m2
04:35 62.1 °F 60.9 °F 30.28 in Calm     96% 0.00 in W/m2
04:40 62.1 °F 60.9 °F 30.28 in Calm     96% 0.00 in W/m2
04:45 62.1 °F 60.9 °F 30.28 in Calm     96% 0.00 in W/m2
04:50 62 °F 60.8 °F 30.28 in Calm     96% 0.00 in W/m2
04:55 61.9 °F 60.8 °F 30.28 in Calm     96% 0.00 in W/m2
05:00 61.9 °F 60.7 °F 30.28 in Calm     96% 0.00 in W/m2
05:05 61.8 °F 60.6 °F 30.28 in Calm     96% 0.00 in W/m2
05:10 61.8 °F 60.6 °F 30.28 in Calm     96% 0.00 in W/m2
05:15 61.6 °F 60.5 °F 30.28 in Calm     96% 0.00 in W/m2
05:20 61.6 °F 60.4 °F 30.28 in Calm     96% 0.00 in W/m2
05:25 61.5 °F 60.3 °F 30.28 in Calm     96% 0.00 in W/m2
05:30 61.5 °F 60.3 °F 30.28 in Calm     96% 0.00 in W/m2
05:35 61.4 °F 60.5 °F 30.28 in Calm     97% 0.00 in W/m2
05:40 61.3 °F 60.5 °F 30.28 in Calm     97% 0.00 in W/m2
05:45 61.3 °F 60.4 °F 30.28 in Calm     97% 0.00 in W/m2
05:50 61.3 °F 60.4 °F 30.28 in Calm     97% 0.00 in W/m2
05:55 61.4 °F 60.5 °F 30.28 in Calm     97% 0.00 in W/m2
06:00 61.4 °F 60.5 °F 30.28 in Calm     97% 0.00 in W/m2
06:05 61.3 °F 60.5 °F 30.28 in Calm     97% 0.00 in W/m2
06:10 61.2 °F 60.3 °F 30.28 in Calm     97% 0.00 in W/m2
06:15 61.3 °F 60.5 °F 30.28 in Calm     97% 0.00 in W/m2
06:20 61.3 °F 60.4 °F 30.28 in Calm     97% 0.00 in W/m2
06:25 61.3 °F 60.4 °F 30.28 in Calm     97% 0.00 in W/m2
06:30 61.3 °F 60.4 °F 30.28 in Calm     97% 0.00 in W/m2
06:35 61.3 °F 60.5 °F 30.28 in Calm     97% 0.00 in W/m2
06:40 61.4 °F 60.6 °F 30.28 in Calm     97% 0.00 in W/m2
06:45 61.5 °F 60.7 °F 30.28 in Calm     97% 0.00 in W/m2
06:50 61.6 °F 60.4 °F 30.28 in Calm     96% 0.00 in W/m2
06:55 61.7 °F 60.5 °F 30.28 in Calm     96% 0.00 in W/m2
07:00 61.9 °F 60.7 °F 30.27 in Calm     96% 0.00 in W/m2
07:05 62 °F 60.9 °F 30.28 in Calm     96% 0.00 in W/m2
07:10 62.3 °F 61.1 °F 30.28 in Calm     96% 0.00 in W/m2
07:15 62.6 °F 61.4 °F 30.28 in Calm     96% 0.00 in W/m2
07:20 62.7 °F 61.6 °F 30.28 in Calm     96% 0.00 in W/m2
07:25 63 °F 61.9 °F 30.28 in Calm     96% 0.00 in W/m2
07:30 63.4 °F 62.2 °F 30.28 in Calm     96% 0.00 in W/m2
07:35 63.8 °F 62.6 °F 30.28 in Calm     96% 0.00 in W/m2
07:40 64.1 °F 62.9 °F 30.28 in Calm     96% 0.00 in W/m2
07:45 64.4 °F 63.3 °F 30.27 in Calm     96% 0.00 in W/m2
07:50 64.8 °F 63.6 °F 30.27 in Calm     96% 0.00 in W/m2
07:55 65 °F 63.9 °F 30.27 in Calm     96% 0.00 in W/m2
08:00 65.1 °F 64 °F 30.27 in Calm     96% 0.00 in W/m2
08:05 65.2 °F 63.7 °F 30.27 in Calm     95% 0.00 in W/m2
08:10 65.5 °F 64 °F 30.27 in Calm     95% 0.00 in W/m2
08:15 65.8 °F 64.7 °F 30.27 in Calm     96% 0.00 in W/m2
08:20 66.2 °F 65 °F 30.27 in Calm     96% 0.00 in W/m2
08:25 66.6 °F 65.8 °F 30.27 in Calm     97% 0.00 in W/m2
08:30 67.2 °F 66 °F 30.27 in Calm     96% 0.00 in W/m2
08:35 67.8 °F 66.6 °F 30.27 in Calm     96% 0.00 in W/m2
08:40 68.2 °F 66.8 °F 30.26 in Calm     95% 0.00 in W/m2
08:45 68.7 °F 66.9 °F 30.27 in Calm     94% 0.00 in W/m2
08:50 69 °F 66.9 °F 30.26 in Calm     93% 0.00 in W/m2
08:55 69.4 °F 66.6 °F 30.26 in Calm     91% 0.00 in W/m2
09:00 69.7 °F 66.6 °F 30.26 in Calm     90% 0.00 in W/m2
09:05 70.1 °F 67 °F 30.26 in Calm     90% 0.00 in W/m2
09:10 70.5 °F 67.1 °F 30.26 in Calm     89% 0.00 in W/m2
09:15 70.9 °F 67.5 °F 30.25 in Calm     89% 0.00 in W/m2
09:20 71.3 °F 67.5 °F 30.25 in Calm     88% 0.00 in W/m2
09:25 71.7 °F 67.9 °F 30.25 in Calm     88% 0.00 in W/m2
09:30 72.1 °F 68.1 °F 30.25 in Calm     87% 0.00 in W/m2
09:35 72.5 °F 68.1 °F 30.24 in Calm     86% 0.00 in W/m2
09:40 72.9 °F 68.4 °F 30.24 in Calm     86% 0.00 in W/m2
09:45 73.1 °F 68.7 °F 30.24 in Calm     86% 0.00 in W/m2
09:50 73.6 °F 68.8 °F 30.23 in Calm     85% 0.00 in W/m2
09:55 73.9 °F 69.1 °F 30.23 in Calm     85% 0.00 in W/m2
10:00 74.2 °F 69.4 °F 30.24 in Calm     85% 0.00 in W/m2
10:05 74.5 °F 69.4 °F 30.23 in Calm   1 mph 84% 0.00 in W/m2
10:10 74.8 °F 69.6 °F 30.23 in Calm   3 mph 84% 0.00 in W/m2
10:15 75.3 °F 69.7 °F 30.23 in Calm     83% 0.00 in W/m2
10:20 75.8 °F 69.6 °F 30.23 in Calm   2 mph 81% 0.00 in W/m2
10:25 76.6 °F 69.9 °F 30.23 in Calm   2 mph 80% 0.00 in W/m2
10:30 77 °F 70.3 °F 30.23 in Calm   2 mph 80% 0.00 in W/m2
10:35 77.6 °F 70.2 °F 30.23 in WSW 2 mph 5 mph 78% 0.00 in W/m2
10:40 78.5 °F 69.1 °F 30.23 in SW 2 mph 5 mph 73% 0.00 in W/m2
10:45 79.1 °F 69.7 °F 30.23 in South 1 mph 4 mph 73% 0.00 in W/m2
10:50 79.5 °F 70.1 °F 30.23 in SSE 2 mph 3 mph 73% 0.00 in W/m2
10:55 80 °F 69.3 °F 30.23 in South 2 mph 6 mph 70% 0.00 in W/m2
11:00 80.8 °F 69.7 °F 30.23 in South 2 mph 5 mph 69% 0.00 in W/m2
11:05 81.5 °F 69.9 °F 30.23 in SSE 2 mph 3 mph 68% 0.00 in W/m2
11:10 82.6 °F 70.5 °F 30.23 in SSE 3 mph 7 mph 67% 0.00 in W/m2
11:15 83.9 °F 70.4 °F 30.23 in SSE 1 mph 5 mph 64% 0.00 in W/m2
11:20 84.5 °F 70.1 °F 30.22 in South 2 mph 6 mph 62% 0.00 in W/m2
11:25 84.9 °F 70.4 °F 30.22 in SSW 2 mph 7 mph 62% 0.00 in W/m2
11:30 85 °F 70 °F 30.22 in SW 3 mph 6 mph 61% 0.00 in W/m2
11:35 85 °F 70.5 °F 30.22 in Calm   8 mph 62% 0.00 in W/m2
11:40 85 °F 70.5 °F 30.22 in Calm   3 mph 62% 0.00 in W/m2
11:45 85.3 °F 70.3 °F 30.22 in SSW 1 mph 3 mph 61% 0.00 in W/m2
11:50 85.9 °F 70.9 °F 30.21 in SSE 1 mph 2 mph 61% 0.00 in W/m2
11:55 86.7 °F 70.6 °F 30.21 in South 1 mph 3 mph 59% 0.00 in W/m2
12:00 87.6 °F 72 °F 30.21 in SSE 2 mph 3 mph 60% 0.00 in W/m2
12:05 87.8 °F 70.7 °F 30.21 in South 2 mph 5 mph 57% 0.00 in W/m2
12:10 88 °F 70.4 °F 30.20 in SW 1 mph 8 mph 56% 0.00 in W/m2
12:15 88.8 °F 70 °F 30.20 in SW 3 mph 6 mph 54% 0.00 in W/m2
12:20 89.4 °F 70.6 °F 30.20 in SW 2 mph 4 mph 54% 0.00 in W/m2
12:25 89.9 °F 69.3 °F 30.20 in South 2 mph 3 mph 51% 0.00 in W/m2
12:30 89.9 °F 69.9 °F 30.20 in South 1 mph 3 mph 52% 0.00 in W/m2
12:35 90 °F 70 °F 30.20 in WSW 1 mph 5 mph 52% 0.00 in W/m2
12:40 89.3 °F 69.4 °F 30.20 in West 1 mph 5 mph 52% 0.00 in W/m2
12:45 88.6 °F 69.3 °F 30.19 in Calm   3 mph 53% 0.00 in W/m2
12:50 88.5 °F 70.2 °F 30.19 in SSE 1 mph 3 mph 55% 0.00 in W/m2
12:55 88.1 °F 69.9 °F 30.19 in South 1 mph 3 mph 55% 0.00 in W/m2
13:00 87.7 °F 70 °F 30.19 in SSW 2 mph 5 mph 56% 0.00 in W/m2
13:05 87.5 °F 69.3 °F 30.19 in SSW 1 mph 3 mph 55% 0.00 in W/m2
13:10 87.6 °F 70.4 °F 30.18 in SW 1 mph 2 mph 57% 0.00 in W/m2
13:15 87.2 °F 69.6 °F 30.18 in SW 1 mph 4 mph 56% 0.00 in W/m2
13:20 87.4 °F 69.3 °F 30.18 in SSW 2 mph 5 mph 55% 0.00 in W/m2
13:25 87.7 °F 69.6 °F 30.18 in SW 2 mph 11 mph 55% 0.00 in W/m2
13:30 87.8 °F 68.5 °F 30.18 in SSW 1 mph 10 mph 53% 0.00 in W/m2
13:35 88.6 °F 71.9 °F 30.17 in South 1 mph 3 mph 58% 0.00 in W/m2
13:40 88.6 °F 66.4 °F 30.17 in SE 3 mph 5 mph 48% 0.00 in W/m2
13:45 88.6 °F 67.6 °F 30.17 in East 1 mph 3 mph 50% 0.00 in W/m2
13:50 89.2 °F 69.8 °F 30.17 in Calm   3 mph 53% 0.00 in W/m2
13:55 89.5 °F 67.2 °F 30.16 in SSW 1 mph 3 mph 48% 0.00 in W/m2
14:00 89.8 °F 68.1 °F 30.16 in SSE 1 mph 5 mph 49% 0.00 in W/m2
14:05 90 °F 65.1 °F 30.16 in North 2 mph 7 mph 44% 0.00 in W/m2
14:10 90.4 °F 68.6 °F 30.16 in Calm   3 mph 49% 0.00 in W/m2
14:15 90.7 °F 69 °F 30.16 in Calm   4 mph 49% 0.00 in W/m2
14:20 91 °F 65.4 °F 30.15 in Calm   4 mph 43% 0.00 in W/m2
14:25 91.3 °F 68.8 °F 30.15 in Calm   2 mph 48% 0.00 in W/m2
14:30 91 °F 63.3 °F 30.15 in South 2 mph 6 mph 40% 0.00 in W/m2
14:35 91.2 °F 69.4 °F 30.15 in NE 2 mph 5 mph 49% 0.00 in W/m2
14:40 91.1 °F 70.5 °F 30.15 in NW 1 mph 4 mph 51% 0.00 in W/m2
14:45 91 °F 64 °F 30.15 in Calm   3 mph 41% 0.00 in W/m2
14:50 91.1 °F 62.7 °F 30.15 in SE 1 mph 9 mph 39% 0.00 in W/m2
14:55 91.2 °F 59.8 °F 30.14 in South 1 mph 9 mph 35% 0.00 in W/m2
15:00 91.8 °F 61.1 °F 30.14 in West 1 mph 5 mph 36% 0.00 in W/m2
15:05 92 °F 62.7 °F 30.14 in NE 2 mph 6 mph 38% 0.00 in W/m2
15:10 92.2 °F 63.6 °F 30.14 in SE 1 mph 5 mph 39% 0.00 in W/m2
Compliments of Weather Underground - 2 mb